Flag for Congo Weather past 2 weeks in Brazzaville, Congo

Now
72 °F

Partly sunny.


Feels Like: 69 °F
Forecast: 68 / 87 °F
Wind: 3 mph from West

Location: Brazzaville / Maya-Maya

Current Time: Jul 3, 2015 at 9:04:37 AM

Latest Report: Jul 3, 2015 at 8:00 AM


Visibility: 4 mi

Pressure: 30.04 "Hg

Humidity: 88%

Dew point: 68 °F

Location of BrazzavilleLocation

Historic Weather in Brazzaville — Graph

°F

Brazzaville temperature yesterday

Maximum temperature yesterday: 79 °F (at 2:00 PM)
Minimum temperature yesterday: 68 °F (at 5:00 AM)
Average temperature yesterday: 73 °F

Past Weeks' High & Low Weather Summary

 TemperatureHumidityPressure
High86 °F (Jun 19, 4:00 PM)100% (Jun 19, 7:00 AM)30.15 "Hg (Jun 19, 7:00 AM)
Low64 °F (Jun 19, 5:00 AM)51% (Jun 27, 4:00 PM)29.89 "Hg (Jun 18, 3:00 PM)
Average73 °F77%30.02 "Hg
* Reported Jun 18 8:00 AM — Jul 3 8:00 AM, Brazzaville, Weather by CustomWeather, © 2015

Note: Actual official high and low records may vary slightly from our data, if they occured in-between our weather recording intervals... More about our weather records

Advertising

Brazzaville weather history for previous 24 hours

 ConditionsComfort  
Time TempWeatherWind HumidityBarometerVisibility
8:00 AM
Fri, Jul 3
72 °FPartly sunny.3 mph88%30.04 "Hg4 mi
7:00 AM70 °FBroken clouds.3 mph88%30.04 "Hg4 mi
6:00 AM70 °FPartly cloudy.3 mph88%30.01 "Hg4 mi
5:00 AM70 °FPassing clouds.3 mph88%30.01 "Hg5 mi
4:00 AM70 °FPassing clouds.2 mph88%29.98 "Hg4 mi
3:00 AM68 °FPassing clouds.3 mph94%29.98 "Hg4 mi
2:00 AM70 °FPassing clouds.1 mph88%30.01 "Hg4 mi
1:00 AM70 °FClear.3 mph88%30.01 "Hg4 mi
12:00 AM72 °FClear.3 mph83%30.01 "Hg4 mi
11:00 PM
Thu, Jul 2
72 °FClear.2 mph83%30.01 "Hg4 mi
10:00 PM72 °FClear.2 mph83%29.98 "Hg4 mi
9:00 PM73 °FClear.2 mph78%29.98 "Hg4 mi
8:00 PM73 °FClear.3 mph78%29.98 "Hg4 mi
7:00 PM75 °FClear.3 mph74%29.95 "Hg4 mi
6:00 PM75 °FClear.5 mph74%29.95 "Hg4 mi
5:00 PM79 °FClear.6 mph65%29.92 "Hg5 mi
4:00 PM79 °FClear.6 mph65%29.92 "Hg5 mi
3:00 PM79 °FPartly sunny.8 mph65%29.92 "Hg5 mi
2:00 PM79 °FPartly sunny.8 mph65%29.95 "Hg5 mi
1:00 PM77 °FPartly sunny.8 mph69%29.98 "Hg5 mi
12:00 PM77 °FPartly sunny.8 mph69%30.01 "Hg5 mi
11:00 AM77 °FPartly sunny.5 mph69%30.04 "Hg5 mi
10:00 AM73 °FPartly sunny.7 mph78%30.04 "Hg5 mi
9:00 AM72 °FScattered clouds.6 mph83%30.04 "Hg5 mi
Weather by CustomWeather, © 2015

See weather overviewHow to use our weather pages